�������l�o���
Date,Time,MP-1(��Sv/h),MP-2(��Sv/h),MP-3(��Sv/h),MP-4(��Sv/h),MP-5(��Sv/h),MP-6(��Sv/h),MP-7(��Sv/h),MP-8(��Sv/h),����,����(m/s),���J
2024/04/27,00:00,0.504,0.768,0.484,0.951,0.687,0.314,0.551,0.517,��,5.6,��
2024/04/27,00:10,0.505,0.767,0.484,0.951,0.687,0.314,0.551,0.518,��,4.9,��
2024/04/27,00:20,0.505,0.770,0.485,0.949,0.687,0.315,0.552,0.518,��,4.5,��
2024/04/27,00:30,0.506,0.770,0.484,0.952,0.688,0.314,0.550,0.516,��,2.6,��
2024/04/27,00:40,0.505,0.768,0.485,0.953,0.687,0.315,0.551,0.516,��,2.3,��
2024/04/27,00:50,0.504,0.769,0.485,0.952,0.688,0.316,0.550,0.517,��쓌,4.6,��
2024/04/27,01:00,0.507,0.770,0.484,0.950,0.687,0.314,0.552,0.516,��,7.1,��
2024/04/27,01:10,0.507,0.769,0.482,0.950,0.687,0.315,0.551,0.517,��,8.1,��
2024/04/27,01:20,0.506,0.768,0.484,0.950,0.689,0.315,0.552,0.516,��,7.2,��
2024/04/27,01:30,0.506,0.769,0.484,0.951,0.688,0.315,0.552,0.517,��,6.2,��
2024/04/27,01:40,0.505,0.768,0.484,0.950,0.689,0.314,0.551,0.516,��,4.7,��
2024/04/27,01:50,0.506,0.768,0.486,0.952,0.686,0.315,0.552,0.516,��,5.9,��
2024/04/27,02:00,0.505,0.768,0.484,0.949,0.688,0.315,0.552,0.517,��,6.1,��
2024/04/27,02:10,0.505,0.768,0.484,0.951,0.688,0.314,0.551,0.516,��,7.3,��
2024/04/27,02:20,0.505,0.769,0.484,0.950,0.687,0.314,0.551,0.517,��,8.2,��
2024/04/27,02:30,0.505,0.767,0.485,0.950,0.688,0.314,0.551,0.516,��,7.8,��
2024/04/27,02:40,0.505,0.768,0.484,0.950,0.686,0.315,0.551,0.515,��,5.6,��
2024/04/27,02:50,0.505,0.769,0.485,0.950,0.687,0.315,0.552,0.517,��,3.6,��
2024/04/27,03:00,0.506,0.766,0.484,0.950,0.687,0.314,0.551,0.517,��,4.1,��
2024/04/27,03:10,0.506,0.768,0.484,0.952,0.685,0.314,0.553,0.517,��,3.9,��
2024/04/27,03:20,0.506,0.768,0.484,0.953,0.686,0.314,0.552,0.517,��,3.7,��
2024/04/27,03:30,0.506,0.767,0.485,0.951,0.688,0.315,0.551,0.516,��,3.5,��
2024/04/27,03:40,0.506,0.769,0.486,0.952,0.688,0.316,0.551,0.516,��,3.6,��
2024/04/27,03:50,0.504,0.765,0.485,0.951,0.687,0.315,0.551,0.517,��,4.5,��
2024/04/27,04:00,0.505,0.767,0.482,0.952,0.688,0.314,0.552,0.516,��,4.6,��
2024/04/27,04:10,0.505,0.768,0.485,0.951,0.690,0.314,0.551,0.516,��,4.5,��
2024/04/27,04:20,0.505,0.766,0.484,0.950,0.688,0.314,0.551,0.517,��,5.7,��
2024/04/27,04:30,0.505,0.768,0.484,0.948,0.687,0.314,0.552,0.518,��,6.1,��
2024/04/27,04:40,0.506,0.769,0.484,0.952,0.688,0.315,0.552,0.517,��,5.9,��
2024/04/27,04:50,0.506,0.768,0.484,0.950,0.689,0.314,0.552,0.516,��,5.1,��
2024/04/27,05:00,0.506,0.768,0.483,0.949,0.689,0.315,0.552,0.516,��,4.4,��
2024/04/27,05:10,0.505,0.769,0.483,0.952,0.687,0.314,0.550,0.517,��,4.0,��
2024/04/27,05:20,0.505,0.767,0.484,0.952,0.686,0.314,0.551,0.516,��,4.8,��
2024/04/27,05:30,0.505,0.767,0.485,0.951,0.689,0.314,0.551,0.517,��,4.8,��
2024/04/27,05:40,0.507,0.769,0.485,0.949,0.687,0.315,0.550,0.518,��,5.3,��
2024/04/27,05:50,0.505,0.769,0.484,0.951,0.687,0.314,0.552,0.517,��,5.1,��
2024/04/27,06:00,0.505,0.769,0.485,0.949,0.688,0.314,0.552,0.515,��,4.8,��
2024/04/27,06:10,0.506,0.768,0.484,0.950,0.689,0.315,0.552,0.517,��,4.4,��
2024/04/27,06:20,0.506,0.769,0.484,0.950,0.688,0.316,0.551,0.518,��,4.5,��
2024/04/27,06:30,0.506,0.766,0.485,0.951,0.689,0.314,0.551,0.517,��,4.4,��
2024/04/27,06:40,0.507,0.769,0.486,0.951,0.687,0.315,0.551,0.517,��,3.8,��
2024/04/27,06:50,0.504,0.770,0.485,0.951,0.686,0.316,0.551,0.518,��쐼,3.1,��
2024/04/27,07:00,0.506,0.767,0.485,0.951,0.688,0.314,0.552,0.516,��쐼,3.0,��
2024/04/27,07:10,0.505,0.768,0.485,0.952,0.689,0.314,0.552,0.517,��,5.3,��
2024/04/27,07:20,0.505,0.769,0.485,0.951,0.689,0.315,0.552,0.517,��,4.1,��
2024/04/27,07:30,0.505,0.769,0.485,0.951,0.687,0.312,0.551,0.518,��,3.9,��
2024/04/27,07:40,0.505,0.769,0.483,0.951,0.689,0.314,0.550,0.517,��,4.6,��
2024/04/27,07:50,0.505,0.768,0.485,0.950,0.688,0.314,0.550,0.515,��,4.9,��
2024/04/27,08:00,0.506,0.769,0.485,0.950,0.688,0.314,0.550,0.518,��,5.0,��
2024/04/27,08:10,0.505,0.767,0.486,0.951,0.689,0.313,0.549,0.516,��,4.4,��
2024/04/27,08:20,0.506,0.768,0.485,0.953,0.687,0.314,0.550,0.516,��,4.2,��
2024/04/27,08:30,0.505,0.769,0.484,0.950,0.688,0.313,0.549,0.516,��,3.9,��
2024/04/27,08:40,0.505,0.769,0.485,0.952,0.687,0.313,0.550,0.516,��,4.0,��
2024/04/27,08:50,0.504,0.767,0.485,0.951,0.687,0.313,0.550,0.514,��,4.7,��
2024/04/27,09:00,0.506,0.767,0.484,0.951,0.687,0.312,0.548,0.515,��,5.1,��
2024/04/27,09:10,0.505,0.767,0.484,0.950,0.685,0.313,0.550,0.514,��,5.3,��
2024/04/27,09:20,0.505,0.766,0.484,0.950,0.684,0.313,0.550,0.516,��,3.3,��
2024/04/27,09:30,0.504,0.766,0.484,0.950,0.686,0.314,0.549,0.515,��,3.8,��
2024/04/27,09:40,0.504,0.767,0.485,0.951,0.686,0.312,0.550,0.515,��,4.2,��
2024/04/27,09:50,0.503,0.763,0.484,0.951,0.685,0.315,0.549,0.516,��,4.5,��
2024/04/27,10:00,0.504,0.767,0.485,0.954,0.686,0.314,0.550,0.515,��,3.7,��
2024/04/27,10:10,0.503,0.765,0.485,0.950,0.685,0.314,0.548,0.515,��,4.3,��
2024/04/27,10:20,0.503,0.768,0.484,0.951,0.685,0.313,0.550,0.514,��,5.7,��
2024/04/27,10:30,0.505,0.768,0.484,0.951,0.686,0.313,0.549,0.515,��,6.1,��
2024/04/27,10:40,0.503,0.766,0.483,0.952,0.686,0.314,0.550,0.516,��,6.4,��
2024/04/27,10:50,0.505,0.766,0.484,0.951,0.688,0.313,0.550,0.514,��,6.7,��
2024/04/27,11:00,0.504,0.764,0.484,0.951,0.687,0.315,0.552,0.513,��,6.1,��
2024/04/27,11:10,0.504,0.766,0.486,0.953,0.687,0.313,0.549,0.515,��,6.4,��
2024/04/27,11:20,0.504,0.766,0.482,0.950,0.687,0.315,0.551,0.515,��,6.7,��
2024/04/27,11:30,0.505,0.767,0.484,0.951,0.687,0.314,0.550,0.515,��,7.1,��
2024/04/27,11:40,0.506,0.766,0.483,0.952,0.687,0.315,0.551,0.513,��쓌,9.4,��
2024/04/27,11:50,0.505,0.768,0.485,0.950,0.687,0.314,0.552,0.514,��쓌,8.9,��
2024/04/27,12:00,0.506,0.768,0.484,0.949,0.687,0.313,0.551,0.515,��,9.2,��
2024/04/27,12:10,0.505,0.764,0.485,0.952,0.688,0.313,0.550,0.517,��쓌,9.8,��
2024/04/27,12:20,0.506,0.767,0.483,0.948,0.689,0.315,0.551,0.515,��쓌,8.8,��
2024/04/27,12:30,0.506,0.768,0.483,0.951,0.689,0.314,0.552,0.515,��쓌,10.8,��
2024/04/27,12:40,0.506,0.766,0.484,0.949,0.688,0.314,0.552,0.514,��쓌,10.5,��
2024/04/27,12:50,0.506,0.768,0.484,0.951,0.688,0.314,0.551,0.515,��쓌,9.2,��
2024/04/27,13:00,0.506,0.768,0.484,0.950,0.690,0.315,0.551,0.516,��쓌,8.5,��
2024/04/27,13:10,0.505,0.769,0.483,0.951,0.688,0.314,0.550,0.514,��쓌,10.5,��
2024/04/27,13:20,0.506,0.767,0.484,0.950,0.690,0.314,0.552,0.516,��쓌,11.0,��
2024/04/27,13:30,0.505,0.770,0.484,0.950,0.688,0.315,0.553,0.515,��쓌,10.8,��
2024/04/27,13:40,0.506,0.769,0.485,0.953,0.688,0.313,0.550,0.515,��쓌,9.6,��
2024/04/27,13:50,0.506,0.768,0.486,0.951,0.690,0.314,0.552,0.515,��쓌,10.6,��
2024/04/27,14:00,0.505,0.770,0.484,0.951,0.689,0.315,0.553,0.516,��쓌,10.5,��
2024/04/27,14:10,0.506,0.771,0.484,0.952,0.688,0.315,0.552,0.515,��쓌,10.8,��
2024/04/27,14:20,0.505,0.769,0.484,0.951,0.687,0.314,0.551,0.515,��쓌,11.4,��
2024/04/27,14:30,0.508,0.766,0.484,0.951,0.690,0.313,0.551,0.515,��쓌,11.9,��
2024/04/27,14:40,0.506,0.770,0.483,0.953,0.688,0.314,0.552,0.515,��쓌,11.9,��
2024/04/27,14:50,0.507,0.768,0.482,0.952,0.690,0.314,0.551,0.516,��쓌,10.7,��
2024/04/27,15:00,0.505,0.768,0.483,0.949,0.688,0.315,0.551,0.514,��쓌,10.2,��
2024/04/27,15:10,0.506,0.769,0.485,0.950,0.690,0.313,0.549,0.515,��,9.9,��
2024/04/27,15:20,0.505,0.768,0.483,0.949,0.690,0.314,0.550,0.516,��쓌,9.0,��
2024/04/27,15:30,0.505,0.768,0.485,0.951,0.688,0.315,0.550,0.515,��,6.9,��
2024/04/27,15:40,0.507,0.767,0.484,0.951,0.689,0.313,0.551,0.515,��,7.7,��
2024/04/27,15:50,0.507,0.768,0.484,0.953,0.691,0.314,0.549,0.515,��,8.6,��
2024/04/27,16:00,0.506,0.769,0.485,0.954,0.688,0.313,0.552,0.513,��,6.9,��
2024/04/27,16:10,0.506,0.767,0.484,0.953,0.689,0.314,0.550,0.514,��,7.6,��
2024/04/27,16:20,0.506,0.770,0.484,0.955,0.689,0.315,0.552,0.514,��,7.3,��
2024/04/27,16:30,0.506,0.767,0.483,0.955,0.688,0.314,0.550,0.517,��,7.1,��
2024/04/27,16:40,0.505,0.768,0.483,0.955,0.689,0.315,0.551,0.515,��,7.6,��
2024/04/27,16:50,0.505,0.769,0.483,0.953,0.689,0.315,0.550,0.516,��,8.1,��
2024/04/27,17:00,0.505,0.768,0.485,0.953,0.689,0.313,0.550,0.515,��,8.2,��
2024/04/27,17:10,0.505,0.769,0.485,0.953,0.690,0.314,0.550,0.515,��,8.2,��
2024/04/27,17:20,0.505,0.768,0.484,0.953,0.688,0.313,0.551,0.516,��,6.6,��
2024/04/27,17:30,0.505,0.766,0.484,0.956,0.689,0.315,0.550,0.514,��,8.3,��
2024/04/27,17:40,0.506,0.769,0.485,0.953,0.690,0.314,0.548,0.514,��,8.3,��
2024/04/27,17:50,0.505,0.769,0.484,0.954,0.689,0.314,0.549,0.515,��,9.4,��
2024/04/27,18:00,0.506,0.769,0.483,0.957,0.690,0.313,0.548,0.517,��,7.8,��
2024/04/27,18:10,0.505,0.767,0.485,0.956,0.691,0.311,0.550,0.517,��,8.2,��
2024/04/27,18:20,0.505,0.768,0.485,0.956,0.690,0.313,0.549,0.518,��쓌,8.9,��
2024/04/27,18:30,0.505,0.768,0.484,0.955,0.689,0.313,0.548,0.518,��,10.2,��
2024/04/27,18:40,0.506,0.768,0.484,0.956,0.688,0.314,0.551,0.516,��쓌,11.6,��
2024/04/27,18:50,0.505,0.767,0.484,0.955,0.688,0.313,0.550,0.517,��쓌,10.5,��
2024/04/27,19:00,0.506,0.767,0.486,0.953,0.689,0.314,0.550,0.517,��,8.6,��
2024/04/27,19:10,0.506,0.769,0.485,0.955,0.688,0.314,0.549,0.518,��쓌,9.6,��
2024/04/27,19:20,0.504,0.767,0.485,0.954,0.688,0.313,0.550,0.516,��,8.3,��
2024/04/27,19:30,0.507,0.770,0.485,0.953,0.687,0.313,0.550,0.518,��,8.8,��
2024/04/27,19:40,0.508,0.771,0.486,0.954,0.690,0.312,0.551,0.518,��,7.6,��
2024/04/27,19:50,0.506,0.769,0.485,0.953,0.688,0.314,0.550,0.519,��,8.9,��
2024/04/27,20:00,0.506,0.768,0.486,0.955,0.690,0.315,0.552,0.517,��,7.8,��
2024/04/27,20:10,0.504,0.768,0.486,0.953,0.689,0.313,0.552,0.517,��,7.0,��
2024/04/27,20:20,0.505,0.771,0.485,0.955,0.688,0.313,0.551,0.519,��,7.1,��
2024/04/27,20:30,0.506,0.772,0.486,0.956,0.690,0.315,0.552,0.518,��,8.0,��
2024/04/27,20:40,0.505,0.771,0.487,0.954,0.687,0.313,0.552,0.518,��,7.7,��
2024/04/27,20:50,0.506,0.772,0.487,0.954,0.691,0.315,0.550,0.517,��,7.6,��
2024/04/27,21:00,0.507,0.771,0.487,0.952,0.692,0.315,0.552,0.517,��,6.5,��
2024/04/27,21:10,0.509,0.772,0.486,0.955,0.691,0.313,0.551,0.517,��,6.7,��
2024/04/27,21:20,0.507,0.773,0.484,0.954,0.691,0.315,0.551,0.516,��,6.8,��
2024/04/27,21:30,0.507,0.770,0.486,0.954,0.691,0.315,0.551,0.516,��,5.6,��
2024/04/27,21:40,0.506,0.773,0.487,0.956,0.691,0.316,0.551,0.518,��,5.8,��
2024/04/27,21:50,0.508,0.770,0.486,0.954,0.691,0.314,0.553,0.517,��,6.1,��
2024/04/27,22:00,0.508,0.773,0.486,0.954,0.691,0.316,0.552,0.517,��,6.5,��
2024/04/27,22:10,0.507,0.771,0.484,0.955,0.691,0.315,0.553,0.518,��,7.1,��
2024/04/27,22:20,0.506,0.773,0.486,0.953,0.690,0.315,0.552,0.518,��,6.8,��
2024/04/27,22:30,0.507,0.769,0.486,0.954,0.691,0.314,0.553,0.516,��,6.2,��
2024/04/27,22:40,0.507,0.772,0.484,0.954,0.692,0.315,0.552,0.517,��,5.9,��
2024/04/27,22:50,0.508,0.771,0.485,0.955,0.692,0.315,0.551,0.517,��,6.2,��
2024/04/27,23:00,0.507,0.770,0.484,0.956,0.692,0.314,0.552,0.518,��,5.0,��
2024/04/27,23:10,0.508,0.771,0.485,0.955,0.693,0.316,0.552,0.518,��쓌,2.0,��
2024/04/27,23:20,0.507,0.772,0.485,0.954,0.693,0.316,0.551,0.516,��,4.8,��
2024/04/27,23:30,0.507,0.772,0.485,0.955,0.690,0.315,0.554,0.517,��,4.7,��
2024/04/27,23:40,0.506,0.772,0.484,0.953,0.692,0.314,0.553,0.516,��,3.7,��
2024/04/27,23:50,0.507,0.772,0.485,0.954,0.691,0.315,0.552,0.517,��,2.9,��
